Regional Weather Roundup
Issued by NWS

Home | Current Version | Previous Version | Graphics & Text | Print | Product List | Glossary On
Versions: 1 2 3 4 5 6 7 8 9 10 11 12 13 14 15 16 17 18 19 20 21 22 23 24 25 26 27 28 29 30 31 32 33 34 35 36 37 38 39 40 41 42 43 44 45 46 47 48 49 50
000
ASUS45 KPSR 190510
RWRAZ

ARIZONA REGIONAL HOURLY WEATHER ROUNDUP
NATIONAL WEATHER SERVICE PHOENIX AZ
1000 PM MST FRI APR 18 2014

NOTE: FAIR INDICATES FEW OR NO CLOUDS BELOW 12,000 FEET WITH NO
SIGNIFICANT WEATHER AND/OR OBSTRUCTIONS TO VISIBILITY.

AZZ001>003-036-190600-
NORTHWEST ARIZONA

CITY           SKY/WX    TMP DP  RH WIND       PRES   REMARKS
BULLHEAD CITY  CLOUDY    75  43  31 S15G21    29.88R
KINGMAN        CLOUDY    63  37  38 S20       29.98R
$$

AZZ004>008-015-016-018-190600-
NORTH CENTRAL ARIZONA

CITY           SKY/WX    TMP DP  RH WIND       PRES   REMARKS
GRAND CANYON   CLOUDY    46  38  73 S9        30.13S
WILLIAMS       CLOUDY    43  41  93 SE7       30.20S
PRESCOTT       MOCLDY    49  45  86 NW6       30.06S
FLAGSTAFF      CLOUDY    43  40  89 NE5       30.14F
PAYSON         PTCLDY    54  37  54 VRB6      30.09S
PAGE           CLOUDY    63  36  36 S17G28    29.99R
$$

AZZ009>014-017-190600-
NORTHEAST ARIZONA

CITY           SKY/WX    TMP DP  RH WIND       PRES   REMARKS
WINSLOW        LGT RAIN  54  45  71 E9        30.09F
SAINT JOHNS    CLOUDY    50  45  83 CALM      30.12F
WINDOW ROCK    CLOUDY    49  36  61 S7        30.18F
SHOW LOW       CLOUDY    46  34  61 CALM      30.16S
$$

AZZ023-190600-
GREATER PHOENIX AREA

CITY           SKY/WX    TMP DP  RH WIND       PRES   REMARKS
PHOENIX        PTCLDY    76  41  28 S8        29.86R
BUCKEYE          N/A     72  46  40 N7        29.88F
LUKE AFB       NOT AVBL
DEER VALLEY    MOCLDY    72  38  29 E7        29.87S
SCOTTSDALE     PTCLDY    72  40  31 CALM      29.89S
MESA-GATEWAY   CLEAR     70  37  30 SE3       29.89S
$$

AZZ027-028-190600-
SOUTHWEST MARICOPA COUNTY AND PINAL COUNTY

CITY           SKY/WX    TMP DP  RH WIND       PRES   REMARKS
CASA GRANDE    PTCLDY    66  37  34 CALM      29.89R
GILA BEND      PTCLDY    68  43  40 SW6       29.89R
$$

AZZ503-504-507>509-190600-
SOUTHEAST ARIZONA

CITY           SKY/WX    TMP DP  RH WIND       PRES   REMARKS
TUCSON         PTCLDY    68  45  43 SE15      29.95F
DAVIS-MONTHAN  PTCLDY    66  46  48 E13       29.95S
NOGALES        CLEAR     59  45  59 NE8       30.00S
SIERRA VISTA   MOCLDY    57  45  62 SE7       30.06S
DOUGLAS        MOCLDY    53  50  89 NE3       30.04S
SAFFORD        CLEAR     57  45  64 E8        30.00F
$$

AZZ020-021-025-026-031-190600-
SOUTHWEST ARIZONA

CITY           SKY/WX    TMP DP  RH WIND       PRES   REMARKS
YUMA           PTCLDY    73  45  36 SE5       29.84R
$$

CAZ031-033-041-043-047-048-061-190600-
SOUTHERN CALIFORNIA

CITY           SKY/WX    TMP DP  RH WIND       PRES   REMARKS
DOWNTOWN L.A.  MOCLDY    63  52  67 CALM      29.93R
L.A. AIRPORT   MOCLDY    62  54  74 CALM      29.93S
SAN DIEGO      CLOUDY    64  53  67 CALM      29.96R
BURBANK        PTCLDY    62  49  62 S3        29.93R
ONTARIO        MOCLDY    61  52  72 SW6       29.93R
RIVERSIDE      MOCLDY    61  50  67 W5        29.93R
PALM SPRINGS   PTCLDY    73  50  44 CALM      29.86R
EL CENTRO NAS  PTCLDY    73  48  41 E13       29.81R
IMPERIAL       PTCLDY    74  48  39 SE12      29.81S
BLYTHE         CLOUDY    73  48  41 SE3       29.86R
NEEDLES        CLOUDY    75  43  31 S8        29.89R
$$

NVZ020-UTZ003-190600-
SOUTHERN NEVADA-UTAH

CITY           SKY/WX    TMP DP  RH WIND       PRES   REMARKS
LAS VEGAS      CLOUDY    75  30  19 S17       29.83R
SALT LAKE CITY MOCLDY    54  47  77 N3        29.96S
$$

NMZ009-TXZ055-190600-
NEW MEXICO-WEST TEXAS

CITY           SKY/WX    TMP DP  RH WIND       PRES   REMARKS
ALBUQUERQUE    LGT RAIN  62  36  37 W29G37    30.14R
EL PASO        LGT RAIN  73  38  27 S12       30.02R
$$


........................KEY........................
SKY/WX - SKY CONDITION/WEATHER
TMP    - TEMPERATURE IN FAHRENHEIT
DP     - DEW POINT IN FAHRENHEIT
RH     - RELATIVE HUMIDITY IN PERCENT
WIND   - DIRECTION AND SPEED IN MILES PER HOUR (MPH)
VRB    - VARIABLE WIND DIRECTION
PRES   - MEAN SEA LEVEL PRESSURE IN INCHES OF MERCURY
         F - FALLING PRESSURE   R - RISING PRESSURE
         S - STEADY PRESSURE
VSB    - VISIBILITY IN MILES
HX     - HEAT INDEX IN FAHRENHEIT
WCI    - WIND CHILL INDEX IN FAHRENHEIT
TC     - TEMPERATURE IN CELSIUS WHICH IS ALSO KNOWN AS
         TEMPERATURE IN CENTIGRADE
AFB    - AIR FORCE BASE
         LUKE AFB IS LUKE AIR FORCE BASE
         DAVIS-MONTHAN IS DAVIS-MONTHAN AIR FORCE BASE
NAS    - NAVAL AIR STATION
         EL CENTRO NAS IS EL CENTRO NAVAL AIR STATION
N/A    - NOT AVAILABLE



USA.gov is the U.S. government's official web portal to all federal, state and local government web resources and services.